Location: Piotrkow Trybunalski
(51.4000°N, 19.6830°E)
Time: 01:06:33
(UTC+01:00)

A-11 Canister half - Pass Details

Date: 14 December 2023
Orbit: 1512 x 1687 km, 47.2° (Epoch: 23 February)

Event Time Altitude Azimuth Distance (km) Brightness Sun altitude
Exits shadow 03:53:52 33° 195° (SSW) 2,520 9.9 -33.6°
Drops below altitude 10° 04:00:39 10° 157° (SSE) 3,931 11.3 -32.6°
Sets 04:04:10 0° 149° (SSE) 4,926 12.0 -32.0°
